Location: Albany
(35.0000°S, 118.0000°E)
Time: 00:25:20
(UTC-04:00)

Vanguard 3 - Visible Passes

Search period start: 02 April 2015 00:00
Search period end: 12 April 2015 00:00
Orbit: 509 x 3272 km, 33.4° (Epoch: 01 April)

Date Brightness Start Highest point End Pass type
(mag) Time Alt. Az. Time Alt. Az. Time Alt. Az.
07 Apr 10.8 18:06:31 10° N 18:10:38 13° NNE 18:14:22 10° NE visible
09 Apr 10.6 17:49:58 10° NNW 17:57:32 19° NNE 18:03:15 10° ENE visible
10 Apr 11.0 16:38:31 10° N 16:43:39 13° NNE 16:48:32 10° NE visible
11 Apr 10.4 17:34:08 10° NNW 17:44:18 26° NNE 17:51:16 10° ENE visible
